[[{"header":{"parameterUnit":"m.s-1","parameterCategory":2,"la1":30.2992,"la2":30.254,"lo1":-89.0895,"lo2":-89.0443,"dy":0.0025,"dx":0.0025,"nx":19,"ny":19,"refTime":"2026-05-08T09:00:00:Z","depth":"0","parameterNumber":2,"parameterNumberName":"U-component_of_CURRENTS"},"data":[0,0,0,0.0763,0.0765,0.0835,0.0835,0.0886,0.0886,0,0,0,0,0,0,0,0,0,0,0,0.0732,0.0733,0.0763,0.0765,0.0835,0.0835,0.0886,0.0886,0,0,0,0,0,0,0,0,0,0,0,0.0732,0.0733,0.0733,0.0765,0.0835,0.0835,0.0886,0.0841,0,0,0,0,0,0,0,0,0,0,0.0777,0.0753,0.0733,0.0733,0.0766,0.0835,0.0836,0.0839,0.0844,0.0844,0,0.0857,0,0.0878,0.0889,0.0889,0,0,0,0.076,0.075,0.0774,0.0733,0.0767,0.0835,0.0802,0.0842,0.0847,0.085,0.0858,0.086,0.0879,0.0889,0.089,0.0999,0.1,0,0,0.0756,0.0739,0.0771,0.0777,0.0787,0.08,0.0804,0.0846,0.0847,0.0858,0.0862,0.0879,0.089,0.089,0.0998,0.0999,0,0,0,0.0748,0.0736,0.0761,0.0775,0.0794,0.0802,0.0807,0.0845,0.0855,0.0863,0.088,0.089,0.0891,0.0997,0.0999,0.1037,0,0,0,0.0746,0.0733,0.0759,0.0749,0.0793,0.0826,0.0806,0.0852,0.0858,0.088,0.089,0.0891,0.0996,0.0998,0.1034,0.1039,0,0,0,0.0729,0.0731,0.0741,0.0748,0.0782,0.0826,0.0838,0.0854,0.0869,0.0889,0.0891,0.0996,0.0998,0.1031,0.1035,0.1069,0,0,0,0.0707,0.0726,0.074,0.0773,0.0782,0.0848,0.0838,0.0879,0.09,0.089,0.0997,0.0999,0.1031,0.1032,0.1067,0.1194,0.1216,0,0,0.072,0.0727,0.0749,0.0764,0.0831,0.0838,0.0911,0.0927,0.0933,0.0977,0.098,0.1035,0.1034,0.1069,0.1313,0.1331,0,0,0,0.0747,0.0765,0.0787,0.083,0.0874,0.0928,0.0953,0.0973,0.1025,0.0958,0.1067,0.1065,0.1085,0.1158,0.1173,0.1367,0.1008,0.1008,0.1008,0.0736,0.0778,0.0827,0.0887,0.0927,0.0995,0.1038,0.1076,0.107,0.1111,0.1121,0.1204,0.1285,0.1297,0.1496,0.1155,0.1155,0.1155,0.1155,0.0771,0.0806,0.086,0.0922,0.0983,0.104,0.112,0.1139,0.1213,0.1192,0.121,0.1225,0.1316,0.1523,0.1158,0.1158,0.1157,0.1157,0.1157,0.077,0.0794,0.0837,0.0913,0.0985,0.1054,0.1124,0.1179,0.1239,0.1275,0.1356,0.1357,0.1515,0.1288,0.1289,0.1289,0.1289,0.1289,0.1289,0.0746,0.0795,0.0807,0.0898,0.0915,0.0988,0.1119,0.1189,0.1336,0.1411,0.1412,0.1599,0.1244,0.1213,0.1292,0.1292,0.1291,0.1291,0.1291,0.0738,0.074,0.0745,0.0755,0.0838,0.0957,0.1067,0.1332,0.1421,0.1527,0.1827,0.1492,0.1488,0.1477,0.1453,0.1589,0.1589,0.1589,0.1589,0.0697,0.0713,0.0684,0.0683,0.076,0.0931,0.1189,0.1463,0.1833,0.205,0.2059,0.2097,0.2076,0.2107,0.2082,0.207,0.236,0.2361,0.2362,0.0662,0.065,0.0619,0.0651,0.0735,0.0963,0.1277,0.1666,0.2213,0.2408,0.231,0.2277,0.234,0.2291,0.2338,0.2288,0.2264,0,0]},{"header":{"parameterUnit":"m.s-1","parameterCategory":2,"la1":30.2992,"la2":30.254,"lo1":-89.0895,"lo2":-89.0443,"dy":0.0025,"dx":0.0025,"nx":19,"ny":19,"refTime":"2026-05-08T09:00:00:Z","depth":"0","parameterNumber":3,"parameterNumberName":"V-component_of_CURRENTS"},"data":[0,0,0,-0.052,-0.0521,-0.0555,-0.0556,-0.0628,-0.0629,0,0,0,0,0,0,0,0,0,0,0,-0.0504,-0.0504,-0.052,-0.0521,-0.0555,-0.0556,-0.0628,-0.0629,0,0,0,0,0,0,0,0,0,0,0,-0.0504,-0.0504,-0.0504,-0.0521,-0.0555,-0.0556,-0.0628,-0.0596,0,0,0,0,0,0,0,0,0,0,-0.056,-0.0535,-0.0504,-0.0504,-0.0521,-0.0555,-0.0556,-0.0594,-0.0598,-0.0619,0,-0.0616,0,-0.0624,-0.0634,-0.0634,0,0,0,-0.0527,-0.0532,-0.0544,-0.0504,-0.0521,-0.0555,-0.0541,-0.0596,-0.0601,-0.0624,-0.0617,-0.062,-0.0626,-0.0634,-0.0635,-0.0687,-0.0687,0,0,-0.0525,-0.0511,-0.0541,-0.0546,-0.0521,-0.054,-0.0542,-0.0599,-0.0598,-0.0617,-0.0622,-0.0627,-0.0635,-0.0635,-0.0687,-0.0687,0,0,0,-0.0515,-0.0509,-0.052,-0.0543,-0.0547,-0.0541,-0.0544,-0.0596,-0.0599,-0.0622,-0.0628,-0.0635,-0.0636,-0.0687,-0.0687,-0.0748,0,0,0,-0.0514,-0.0504,-0.0519,-0.0511,-0.0546,-0.0567,-0.0539,-0.0595,-0.0602,-0.0627,-0.0635,-0.0637,-0.0687,-0.0687,-0.0746,-0.0733,0,0,0,-0.0504,-0.0503,-0.0504,-0.051,-0.0523,-0.0567,-0.0574,-0.0597,-0.0606,-0.0634,-0.0637,-0.0687,-0.0687,-0.0745,-0.0731,-0.0721,0,0,0,-0.0493,-0.0476,-0.0503,-0.0488,-0.0523,-0.0535,-0.0573,-0.0581,-0.0599,-0.0636,-0.0687,-0.0687,-0.0744,-0.073,-0.072,-0.0574,-0.0565,0,0,-0.0463,-0.0472,-0.0463,-0.0489,-0.0501,-0.0532,-0.0567,-0.0602,-0.0612,-0.0672,-0.0673,-0.0747,-0.0731,-0.0721,-0.0576,-0.0567,0,0,0,-0.0448,-0.0452,-0.0454,-0.0474,-0.049,-0.0546,-0.0578,-0.0616,-0.0679,-0.0623,-0.073,-0.0717,-0.071,-0.0619,-0.0612,-0.0647,-0.0687,-0.0687,-0.0687,-0.0407,-0.0432,-0.0443,-0.0484,-0.0506,-0.0561,-0.0614,-0.0676,-0.0684,-0.0721,-0.0757,-0.077,-0.0677,-0.0669,-0.0709,-0.0766,-0.0766,-0.0766,-0.0766,-0.0397,-0.0418,-0.0471,-0.0495,-0.0559,-0.0608,-0.07,-0.0728,-0.0794,-0.0795,-0.0787,-0.0674,-0.0664,-0.0709,-0.077,-0.0769,-0.0769,-0.0768,-0.0768,-0.0394,-0.0412,-0.0438,-0.0508,-0.0578,-0.0644,-0.0684,-0.0755,-0.0819,-0.0835,-0.069,-0.0687,-0.0731,-0.0818,-0.0818,-0.0818,-0.0818,-0.0818,-0.0818,-0.0383,-0.0414,-0.0448,-0.0519,-0.0549,-0.0597,-0.065,-0.0658,-0.0667,-0.0702,-0.07,-0.0721,-0.0785,-0.0788,-0.0817,-0.0817,-0.0817,-0.0817,-0.0817,-0.0374,-0.0405,-0.043,-0.0452,-0.0471,-0.0371,-0.0454,-0.0391,-0.0444,-0.0427,-0.0591,-0.0632,-0.0582,-0.0585,-0.0582,-0.0556,-0.0556,-0.0556,-0.0556,-0.0372,-0.0392,-0.0385,-0.036,-0.031,-0.0249,-0.0026,-0.0045,-0.0246,-0.0368,-0.051,-0.0494,-0.0503,-0.0451,-0.0457,-0.0451,-0.0393,-0.0393,-0.0393,-0.0371,-0.037,-0.0324,-0.0292,-0.0204,-0.0022,0.0253,0.0333,-0.0063,-0.04,-0.0597,-0.0603,-0.0599,-0.061,-0.0541,-0.0547,-0.0542,0,0]}],[{"header":{"parameterUnit":"m.s-1","parameterCategory":2,"la1":30.2992,"la2":30.254,"lo1":-89.0895,"lo2":-89.0443,"dy":0.0025,"dx":0.0025,"nx":19,"ny":19,"refTime":"2026-05-08T09:00:00:Z","depth":"2","parameterNumber":2,"parameterNumberName":"U-component_of_CURRENTS"},"data":[0,0,0,0.0779,0.0781,0.085,0.085,0.0899,0.0899,0,0,0,0,0,0,0,0,0,0,0,0.075,0.075,0.0779,0.0781,0.085,0.085,0.0899,0.0899,0,0,0,0,0,0,0,0,0,0,0,0.0749,0.075,0.0751,0.0782,0.085,0.085,0.0899,0.0855,0,0,0,0,0,0,0,0,0,0,0.0793,0.077,0.075,0.0751,0.0782,0.085,0.085,0.0854,0.0858,0.0858,0,0.087,0,0.089,0.0902,0.0902,0,0,0,0.0776,0.0766,0.079,0.0751,0.0783,0.085,0.0817,0.0856,0.0861,0.0864,0.0871,0.0874,0.0891,0.0902,0.0902,0.101,0.1011,0,0,0.0773,0.0756,0.0787,0.0793,0.0802,0.0815,0.082,0.086,0.0861,0.0872,0.0875,0.0892,0.0902,0.0903,0.1009,0.101,0,0,0,0.0765,0.0754,0.0777,0.0791,0.0809,0.0817,0.0822,0.0859,0.0869,0.0876,0.0893,0.0903,0.0903,0.1008,0.101,0.1059,0,0,0,0.0762,0.075,0.0775,0.0766,0.0808,0.084,0.0821,0.0866,0.0872,0.0892,0.0903,0.0904,0.1007,0.1009,0.1056,0.1066,0,0,0,0.0746,0.0748,0.0758,0.0765,0.0798,0.084,0.0852,0.0868,0.0882,0.0902,0.0904,0.1007,0.1009,0.1052,0.1061,0.1094,0,0,0,0.0724,0.0744,0.0757,0.0789,0.0798,0.0863,0.0852,0.0892,0.0912,0.0903,0.1007,0.1009,0.1051,0.1058,0.1092,0.1263,0.1289,0,0,0.0738,0.0745,0.0766,0.0781,0.0848,0.0853,0.0928,0.0943,0.0946,0.0988,0.0991,0.1057,0.1061,0.1094,0.1381,0.1404,0,0,0,0.0764,0.0783,0.0804,0.0848,0.0891,0.0948,0.097,0.0991,0.1044,0.0969,0.1085,0.1086,0.1105,0.1204,0.1223,0.1019,0.1019,0.1019,0.1018,0.0755,0.0796,0.0847,0.0907,0.0949,0.1018,0.1064,0.1104,0.1091,0.1134,0.1148,0.1235,0.1344,0.1359,0.1178,0.1179,0.1179,0.1179,0.1179,0.0791,0.0827,0.0885,0.0947,0.1014,0.1073,0.116,0.1177,0.1252,0.1228,0.1244,0.1278,0.1383,0.1184,0.1183,0.1182,0.1182,0.1181,0.1181,0.0791,0.0816,0.0861,0.0942,0.1022,0.1094,0.1171,0.1228,0.1288,0.1325,0.1426,0.1427,0.1241,0.1333,0.1334,0.1334,0.1334,0.1334,0.1334,0.0767,0.0819,0.0834,0.093,0.0952,0.1031,0.1168,0.1239,0.1407,0.1496,0.1497,0.1286,0.1281,0.1251,0.1338,0.1337,0.1337,0.1336,0.1336,0.0758,0.0762,0.0774,0.0787,0.0877,0.1034,0.115,0.1461,0.153,0.1662,0.1602,0.1595,0.159,0.1578,0.1555,0.1715,0.1715,0.1716,0.1716,0.0715,0.0733,0.0714,0.0719,0.0808,0.102,0.1312,0.1466,0.1644,0.1672,0.1672,0.1664,0.1654,0.1648,0.1633,0.1609,0.1782,0.1781,0.1781,0.0678,0.0673,0.0647,0.0688,0.0787,0.1087,0.1422,0.1485,0.1584,0.1763,0.1475,0.176,0.1753,0.1734,0.1726,0.1702,0.1663,0,0]},{"header":{"parameterUnit":"m.s-1","parameterCategory":2,"la1":30.2992,"la2":30.254,"lo1":-89.0895,"lo2":-89.0443,"dy":0.0025,"dx":0.0025,"nx":19,"ny":19,"refTime":"2026-05-08T09:00:00:Z","depth":"2","parameterNumber":3,"parameterNumberName":"V-component_of_CURRENTS"},"data":[0,0,0,-0.0416,-0.0417,-0.0455,-0.0455,-0.0527,-0.0528,0,0,0,0,0,0,0,0,0,0,0,-0.0399,-0.0399,-0.0416,-0.0417,-0.0455,-0.0455,-0.0527,-0.0528,0,0,0,0,0,0,0,0,0,0,0,-0.0399,-0.0399,-0.0399,-0.0417,-0.0455,-0.0455,-0.0527,-0.0494,0,0,0,0,0,0,0,0,0,0,-0.0454,-0.0431,-0.0399,-0.0399,-0.0417,-0.0455,-0.0455,-0.0492,-0.0496,-0.0514,0,-0.0514,0,-0.0522,-0.0532,-0.0533,0,0,0,-0.0423,-0.0427,-0.044,-0.0399,-0.0417,-0.0455,-0.0439,-0.0494,-0.0498,-0.052,-0.0515,-0.0517,-0.0523,-0.0533,-0.0533,-0.0578,-0.0578,0,0,-0.042,-0.0408,-0.0437,-0.0442,-0.0419,-0.0438,-0.044,-0.0496,-0.0497,-0.0515,-0.0519,-0.0524,-0.0533,-0.0534,-0.0578,-0.0578,0,0,0,-0.041,-0.0406,-0.0417,-0.0439,-0.0444,-0.0439,-0.0442,-0.0494,-0.0498,-0.052,-0.0525,-0.0534,-0.0535,-0.0578,-0.0578,-0.0635,0,0,0,-0.0409,-0.04,-0.0416,-0.0409,-0.0443,-0.0466,-0.0438,-0.0494,-0.0501,-0.0525,-0.0534,-0.0535,-0.0578,-0.0578,-0.0633,-0.0595,0,0,0,-0.0399,-0.0399,-0.0401,-0.0408,-0.0422,-0.0465,-0.0473,-0.0496,-0.0504,-0.0533,-0.0536,-0.0578,-0.0578,-0.0632,-0.0595,-0.0592,0,0,0,-0.0389,-0.0373,-0.0401,-0.0386,-0.0422,-0.0432,-0.0472,-0.0481,-0.0499,-0.0534,-0.0578,-0.0578,-0.0632,-0.0595,-0.0592,-0.0373,-0.0356,0,0,-0.0361,-0.037,-0.0361,-0.0386,-0.0394,-0.0427,-0.0457,-0.0496,-0.0508,-0.0563,-0.0564,-0.0634,-0.0595,-0.0592,-0.0367,-0.035,0,0,0,-0.0346,-0.0348,-0.0349,-0.0366,-0.0382,-0.0421,-0.0465,-0.0506,-0.0568,-0.0519,-0.0615,-0.0587,-0.0585,-0.0452,-0.0439,-0.0578,-0.0578,-0.0578,-0.0578,-0.0307,-0.0327,-0.0328,-0.036,-0.0379,-0.0429,-0.0476,-0.0541,-0.0567,-0.0603,-0.0624,-0.0635,-0.0495,-0.0482,-0.0643,-0.0644,-0.0644,-0.0644,-0.0644,-0.0285,-0.0292,-0.0337,-0.035,-0.0399,-0.0444,-0.053,-0.0569,-0.0642,-0.0653,-0.0651,-0.0503,-0.0471,-0.0648,-0.0647,-0.0647,-0.0646,-0.0646,-0.0646,-0.0273,-0.028,-0.0298,-0.0346,-0.04,-0.0459,-0.0503,-0.0572,-0.0645,-0.0663,-0.049,-0.0486,-0.0647,-0.0666,-0.0666,-0.0665,-0.0665,-0.0665,-0.0665,-0.0251,-0.027,-0.0292,-0.0341,-0.0376,-0.0417,-0.0463,-0.0482,-0.0457,-0.0471,-0.047,-0.064,-0.064,-0.0645,-0.0663,-0.0663,-0.0664,-0.0664,-0.0664,-0.0223,-0.0252,-0.0269,-0.0293,-0.0316,-0.0164,-0.0235,-0.0107,-0.0195,-0.0139,-0.0369,-0.0377,-0.032,-0.0327,-0.0322,-0.0256,-0.0256,-0.0256,-0.0255,-0.0212,-0.0226,-0.0226,-0.0218,-0.017,-0.0042,0.0326,0.0415,0.0258,0.0153,0.0135,0.0181,0.0156,0.0241,0.0221,0.0237,0.0449,0.045,0.0451,-0.0195,-0.0202,-0.0169,-0.0152,-0.0076,0.0226,0.0746,0.0903,0.0597,0.0476,0.0229,-0.0203,-0.0183,-0.0204,-0.0113,-0.013,-0.012,0,0]}],[{"header":{"parameterUnit":"m.s-1","parameterCategory":2,"la1":30.2992,"la2":30.254,"lo1":-89.0895,"lo2":-89.0443,"dy":0.0025,"dx":0.0025,"nx":19,"ny":19,"refTime":"2026-05-08T09:00:00:Z","depth":"4","parameterNumber":2,"parameterNumberName":"U-component_of_CURRENTS"},"data":[0,0,0,0.0635,0.0637,0.0728,0.0728,0.0791,0.0792,0,0,0,0,0,0,0,0,0,0,0,0.0606,0.0607,0.0635,0.0637,0.0728,0.0728,0.0791,0.0792,0,0,0,0,0,0,0,0,0,0,0,0.0606,0.0607,0.0608,0.0637,0.0728,0.0728,0.0791,0.0736,0,0,0,0,0,0,0,0,0,0,0.0654,0.0636,0.0606,0.0608,0.0638,0.0728,0.0728,0.0734,0.0739,0.0735,0,0.0757,0,0.0774,0.0795,0.0795,0,0,0,0.0636,0.0632,0.0655,0.0608,0.0639,0.0727,0.0687,0.0737,0.0743,0.0743,0.0758,0.0761,0.0776,0.0795,0.0796,0.0893,0.0894,0,0,0.0631,0.0621,0.0651,0.0659,0.0671,0.0684,0.0689,0.0741,0.075,0.0758,0.0762,0.0777,0.0796,0.0796,0.0893,0.0893,0,0,0,0.0617,0.0618,0.0641,0.0656,0.0677,0.0686,0.0693,0.0748,0.0757,0.0763,0.0777,0.0796,0.0796,0.0892,0.0893,0.0952,0,0,0,0.0614,0.061,0.0639,0.0634,0.0676,0.0721,0.0698,0.0753,0.076,0.0777,0.0796,0.0797,0.0891,0.0892,0.0948,0.0968,0,0,0,0.06,0.0608,0.0621,0.0633,0.0673,0.0721,0.0733,0.0755,0.0768,0.0795,0.0797,0.089,0.0892,0.0945,0.0964,0.1041,0,0,0,0.0583,0.0605,0.0621,0.0654,0.0672,0.0732,0.0733,0.078,0.0806,0.0796,0.0891,0.0893,0.0944,0.0961,0.1037,0.0823,0,0,0,0.0597,0.0607,0.0625,0.0642,0.069,0.0719,0.0787,0.0821,0.0831,0.0868,0.0871,0.0949,0.0963,0.104,0.0926,0,0,0,0,0.062,0.0629,0.0649,0.0683,0.0731,0.0786,0.0828,0.0861,0.0928,0.0856,0.0968,0.0975,0.1022,0.0887,0.0901,0.0901,0.0901,0.0901,0.09,0.0606,0.0634,0.0668,0.0712,0.076,0.0839,0.0896,0.0951,0.0961,0.1013,0.1037,0.1152,0.1012,0.1055,0.1056,0.1056,0.1056,0.1056,0.1057,0.061,0.0619,0.0678,0.0723,0.0793,0.0865,0.097,0.1009,0.1138,0.1111,0.1154,0.0974,0.1063,0.1062,0.1061,0.106,0.1059,0.1059,0.1059,0.0576,0.0584,0.0631,0.0696,0.079,0.0887,0.0984,0.109,0.1183,0.1245,0.114,0.1208,0.1188,0.1296,0.1297,0.1297,0.1298,0.1298,0.1298,0.0513,0.056,0.0589,0.0667,0.0725,0.0828,0.1013,0.1085,0.1211,0.119,0.1291,0.1234,0.1226,0.1204,0.1305,0.1304,0.1303,0.1303,0.1302,0.0443,0.0472,0.0512,0.0555,0.0671,0.0739,0.0909,0.1033,0.1128,0.115,0.116,0.1165,0.1129,0.1125,0.1097,0.1171,0.1169,0.1166,0,0.0382,0.0399,0.047,0.0528,0.0583,0.0693,0.0747,0.0861,0.1009,0.0989,0.1146,0.1155,0.1158,0.1112,0.1104,0.1067,0,0,0,0.0333,0.0372,0.0413,0.0496,0.0562,0.0648,0.0768,0.0796,0.0967,0.0971,0.1107,0.1123,0.1146,0.1326,0.1285,0.1275,0.1237,0,0]},{"header":{"parameterUnit":"m.s-1","parameterCategory":2,"la1":30.2992,"la2":30.254,"lo1":-89.0895,"lo2":-89.0443,"dy":0.0025,"dx":0.0025,"nx":19,"ny":19,"refTime":"2026-05-08T09:00:00:Z","depth":"4","parameterNumber":3,"parameterNumberName":"V-component_of_CURRENTS"},"data":[0,0,0,-0.0076,-0.0078,-0.0168,-0.0168,-0.0289,-0.029,0,0,0,0,0,0,0,0,0,0,0,-0.0048,-0.0049,-0.0076,-0.0078,-0.0168,-0.0168,-0.0288,-0.029,0,0,0,0,0,0,0,0,0,0,0,-0.0048,-0.0048,-0.0049,-0.0078,-0.0168,-0.0168,-0.0288,-0.0221,0,0,0,0,0,0,0,0,0,0,-0.0134,-0.0106,-0.0048,-0.0049,-0.0079,-0.0168,-0.0168,-0.0218,-0.0225,-0.0247,0,-0.026,0,-0.0274,-0.0297,-0.0297,0,0,0,-0.0086,-0.0099,-0.0121,-0.0049,-0.008,-0.0167,-0.013,-0.0222,-0.023,-0.0257,-0.0262,-0.0266,-0.0276,-0.0298,-0.0298,-0.0327,-0.0326,0,0,-0.0081,-0.0069,-0.0115,-0.0126,-0.0102,-0.0127,-0.0132,-0.0227,-0.0237,-0.0262,-0.0269,-0.0278,-0.0299,-0.0299,-0.0327,-0.0327,0,0,0,-0.0061,-0.0066,-0.0085,-0.0121,-0.0135,-0.0129,-0.0136,-0.0233,-0.0239,-0.027,-0.0279,-0.0299,-0.0301,-0.0328,-0.0327,-0.0078,0,0,0,-0.0059,-0.0054,-0.0083,-0.0077,-0.0133,-0.0185,-0.014,-0.0232,-0.0243,-0.0278,-0.0299,-0.0302,-0.0329,-0.0328,-0.0086,0.0011,0,0,0,-0.0044,-0.0052,-0.0062,-0.0076,-0.0111,-0.0183,-0.0195,-0.0235,-0.0248,-0.0298,-0.0302,-0.0329,-0.0328,-0.0093,-0.0002,0.0052,0,0,0,-0.003,-0.0036,-0.0061,-0.0067,-0.011,-0.0128,-0.0194,-0.0234,-0.0272,-0.03,-0.0328,-0.0327,-0.0095,-0.001,0.0045,-0.0088,0,0,0,-0.0025,-0.0036,-0.0035,-0.0059,-0.0013,-0.0116,-0.006,-0.0149,-0.0257,-0.0301,-0.0302,-0.0083,-0.0003,0.0051,-0.0016,0,0,0,0,-0.0023,0.001,0.0003,0.0029,-0.0014,0.0036,-0.0061,-0.008,-0.0103,-0.0273,-0.0129,-0.0087,-0.006,-0.0162,-0.0321,-0.0321,-0.0321,-0.0322,-0.0322,0.0054,0.0068,0.0131,0.0167,0.0165,0.014,0.0167,0.0125,-0.0004,0.0028,0.0084,0.0249,0.0151,0.0048,0.0049,0.005,0.0051,0.0052,0.0053,0.0176,0.0246,0.0293,0.0367,0.0406,0.0452,0.0439,0.0389,0.0408,0.0278,0.0292,0.0068,0.0076,0.0071,0.0068,0.0065,0.0063,0.0062,0.0061,0.0288,0.0331,0.0383,0.0522,0.0645,0.0648,0.0717,0.0686,0.0613,0.0658,0.0439,0.0384,0.0397,0.0627,0.0628,0.0629,0.063,0.063,0.0631,0.0375,0.0436,0.0535,0.0678,0.0743,0.0828,0.0861,0.084,0.0779,0.0682,0.0687,0.0441,0.0422,0.0425,0.0642,0.064,0.0638,0.0637,0.0636,0.0497,0.0504,0.0631,0.0701,0.0836,0.0885,0.0927,0.0863,0.0853,0.0791,0.0669,0.0665,0.0544,0.0522,0.0523,0.0779,0.0778,0.0777,0,0.0541,0.0575,0.0668,0.0739,0.0817,0.0883,0.0834,0.0817,0.0776,0.076,0.0838,0.0704,0.0697,0.0557,0.0536,0.0537,0,0,0,0.0588,0.0607,0.0648,0.0723,0.0786,0.0784,0.0815,0.078,0.0793,0.0732,0.0755,0.0761,0.065,0.0675,0.0476,0.0453,0.0446,0,0]}]]